FENGYUN 1C DEB

Satellite information

Favourite Embed

Satellite Type and Status

DEBRISIN ORBIT

Key statistics

Satellite FENGYUN 1C DEB at a glance.

Uptime

9610

Days in orbit

Revolutions

≈ 14.1

Per day

Orbit

SSO

Sun Synchronous Orbit

Inclination

98.5

Latest

Satellite identification and parameters

Extended collection of information and parameters for FENGYUN 1C DEB.

Object identification

Identified? True

Debris? True

Object name: FENGYUN 1C DEB

International designator: 1999-025AHX

Object number (NORAD): 30509

Object ID (CCSDS): 30509

Country: PEOPLES REPUBLIC OF CHINA (PRC)

Current information (Y/N): Y

RCS size: SMALL

Orbital parameters

Period: 102.359 minutes

Inclination: 98.4705 deg

SMA: 7248.454 km

Apoapsis: 946.122 km

Periapsis: 794.516 km

RAAN: 119.6166 deg

Eccentricy: 0.01045782

Argument of periapsis: 5.6416 deg

Mean anomaly: 145.4661 deg

Mean motion: 14.06807444 rev/day

Mean motion (dot): 0.00003142 rev/day2

B* drag term: 0.0018200178 1/REarth

Two-line elements (TLE)

Creation date: Aug. 29, 2025, 9:54 a.m.

Reference frame: TEME

Reference center: EARTH

Epoch: Aug. 29, 2025, 3:42 a.m. UTC

TLE line 0: 0 FENGYUN 1C DEB

TLE line 1: 1 30509U 99025AHX 25241.15450691 .00003142 00000-0 18200-2 0 9990

TLE line 2: 2 30509 98.4705 119.6166 0104578 5.6416 145.4661 14.06807444942379

Live tracking on map

Real-time ground track for satellite FENGYUN 1C DEB.

In-orbit conjunctions

A list of the most updated potential collisions computed for object FENGYUN 1C DEB.

Target Orbit TCA Probability of collision Miss distance Type
COSMOS 2251 DEB LEO 2025-07-12 04:56:03 0.0001913285 59.0 (m) DEBRIS
SL-3 R/B LEO 2025-05-30 16:37:58 0.001518807 80.0 (m) ROCKET BODY
SL-3 R/B LEO 2025-05-30 04:42:48 0.0003383634 97.0 (m) ROCKET BODY
SL-8 R/B LEO 2024-09-05 03:52:02 0.0004657994 36.0 (m) ROCKET BODY

Associated space launch

Chinese polar orbiting meteorological satellite

FENGYUN 1C DEB was lifted into orbit during the mission ‘Long March 4B | Feng Yun 1C’, on board a Long March 4B space rocket.

The launch took place on May 10, 1999, 1:33 a.m. from Launch Complex 7.

For more information about the launch, click the button.

Launch to space Long March 4B | Feng Yun 1C
Long March 4B | Feng Yun 1C

Agency: N/A

Status: Launch Successful

Launch date: May 10, 1999, 1:33 a.m. UTC

Rocket: Long March 4B

Launch pad: Launch Complex 7

Location: Taiyuan Satellite Launch Center, People's Republic of China

...

Latest news about this satellite

There are no fresh news available about this satellite. Check back as we update our databases every day.


Newsletter sign-up

Weekly statistics, charts and insights to help you stay on top of the space industry.